Regional Weather Roundup
Issued by NWS

Home | Current Version | Previous Version | Text Only | Print | Product List | Glossary On
Versions: 1 2 3 4 5 6 7 8 9 10 11 12 13 14 15 16 17 18 19 20 21 22 23 24 25 26 27
000
ASUS46 KSEW 250010
RWRWA

WASHINGTON REGIONAL WEATHER ROUNDUP
NATIONAL WEATHER SERVICE SEATTLE WA
400 PM PST FRI FEB 24 2017

NOTE:"FAIR" INDICATES FEW OR NO CLOUDS BELOW 12,000 FEET WITH NO
SIGNIFICANT WEATHER AND/OR OBSTRUCTIONS TO VISIBILITY.

WAZ507-509-555>559-250100-
SEATTLE, TACOMA, EVERETT, AND VICINITY

CITY           SKY/WX    TMP DP  RH WIND       PRES   REMARKS
EVERETT        SUNNY     42  29  59 W3        30.17R
6HR MIN TEMP:  35; 6HR MAX TEMP:  43; 6HR PCP: TRACE;

BOEING FIELD   PTSUNNY   46  29  51 NW6       30.17S
6HR MIN TEMP:  40; 6HR MAX TEMP:  46;

RENTON         CLOUDY    47  30  51 NW6       30.16S
6HR MIN TEMP:  41; 6HR MAX TEMP:  48;

SEATAC AIRPORT MOSUNNY   47  27  45 CALM      30.16S
6HR MIN TEMP:  39; 6HR MAX TEMP:  47;

JBLM-MCCHORD   MOSUNNY   44  33  65 W7        30.16R
6HR MIN TEMP:  39; 6HR MAX TEMP:  45; 6HR PCP: TRACE;

PUYALLUP         N/A     45  27  49 CALM      30.15R
BREMERTON      PTSUNNY   43  30  61 CALM      30.20S
6HR MIN TEMP:  36; 6HR MAX TEMP:  45;

JBLM-FT LEWIS  MOSUNNY   44  35  69 S6        30.15S
6HR MIN TEMP:  37; 6HR MAX TEMP:  46;

TACOMA NARROWS MOSUNNY   44  30  57 W5        30.16F
6HR MIN TEMP:  37; 6HR MAX TEMP:  44;

$$

WAZ001-503-506-510-514-515-250100-
NORTH INTERIOR

CITY           SKY/WX    TMP DP  RH WIND       PRES   REMARKS
BELLINGHAM     MOSUNNY   45  30  55 CALM      30.19S
6HR MIN TEMP:  35; 6HR MAX TEMP:  45; 6HR PCP: TRACE;

FRIDAY HARBOR  MOSUNNY   45  31  58 E6        30.20R
6HR MIN TEMP:  40; 6HR MAX TEMP:  46;

EASTSOUND      PTSUNNY   43  30  61 N5        30.18S
PORT ANGELES   SUNNY     40  31  70 CALM      30.17R
6HR MIN TEMP:  39; 6HR MAX TEMP:  42;

EDIZ HOOK      FAIR      41  31  67 NW5       30.17R
6HR MIN TEMP:  40; 6HR MAX TEMP:  43;

PORT TOWNSEND  FAIR      45  32  61 SE12G20   30.17S
NAS WHIDBEY    PTSUNNY   46  27  47 SE7       30.22R
6HR MIN TEMP:  40; 6HR MAX TEMP:  48; 6HR PCP: TRACE;

ARLINGTON      MOSUNNY   46  27  46 CALM      30.20S
6HR MIN TEMP:  36; 6HR MAX TEMP:  46;

BURLINGTON     SUNNY     45  28  53 CALM      30.19R
$$

WAZ020-022-039-040-504-511-512-250100-
SOUTHWEST INTERIOR

CITY           SKY/WX    TMP DP  RH WIND       PRES   REMARKS
SHELTON        PTSUNNY   42  33  70 CALM      30.15S
6HR MIN TEMP:  35; 6HR MAX TEMP:  42; 6HR PCP: TRACE;

OLYMPIA        PTSUNNY   41  35  79 S8        30.17R
6HR MIN TEMP:  38; 6HR MAX TEMP:  42; 6HR PCP: TRACE;

CHEHALIS       PTSUNNY   43  36  75 MISG      30.17R
KELSO          CLOUDY    43  34  70 SE8       30.17F
6HR MIN TEMP:  38; 6HR MAX TEMP:  44; 6HR PCP:  0.01;

VANCOUVER      LGT RAIN  39  37  92 E6        30.17S
6HR MIN TEMP:  38; 6HR MAX TEMP:  41; 6HR PCP:  0.07;

SCAPPOOSE, OR  LGT RAIN  39  36  89 SE8       30.17S
6HR MIN TEMP:  37; 6HR MAX TEMP:  40; 6HR PCP:  0.08;

PORTLAND, OR   LGT RAIN  39  35  86 E8        30.18R
6HR MIN TEMP:  38; 6HR MAX TEMP:  40; 6HR PCP:  0.07;

$$

WAZ021-516-517-250100-
WASHINGTON COAST

CITY           SKY/WX    TMP DP  RH WIND       PRES   REMARKS
FORKS          LGT RAIN  37  33  85 W5        30.15S
6HR MIN TEMP:  35; 6HR MAX TEMP:  43; 6HR PCP:  0.10;

HOQUIAM        CLOUDY    41  37  86 N3        30.14S
6HR MIN TEMP:  37; 6HR MAX TEMP:  42; 6HR PCP:  0.06;

ASTORIA, OR    MOSUNNY   41  36  82 SE5       30.12F
6HR MIN TEMP:  35; 6HR MAX TEMP:  42; 6HR PCP:  0.05;

$$

WAZ019-023-024-040-567>569-250100-
CASCADE MOUNTAINS AND COLUMBIA GORGE

CITY           SKY/WX    TMP DP  RH WIND       PRES   REMARKS
STAMPEDE PASS  NOT AVBL
TROUTDALE, OR  CLOUDY    42  34  73 E12       30.18S
6HR MIN TEMP:  39; 6HR MAX TEMP:  42; 6HR PCP: TRACE;

THE DALLES, OR PTSUNNY   45  24  43 CALM      30.17F
6HR MIN TEMP:  35; 6HR MAX TEMP:  46;

$$

WAZ026-027-041>044-520-521-250100-
EAST SLOPES

CITY           SKY/WX    TMP DP  RH WIND       PRES   REMARKS
OMAK           SUNNY     33  21  61 S8        30.19S
6HR MIN TEMP:  25; 6HR MAX TEMP:  34;

WENATCHEE      MOSUNNY   35  19  52 CALM      30.18S
6HR MIN TEMP:  26; 6HR MAX TEMP:  35;

ELLENSBURG     MOSUNNY   36  21  54 CALM      30.14S
6HR MIN TEMP:  25; 6HR MAX TEMP:  37;

YAKIMA         MOSUNNY   41  23  48 W6        30.17S
6HR MIN TEMP:  32; 6HR MAX TEMP:  42;

SUNNYSIDE ARPT PTCLDY    39  22  50 CALM      30.18S
6HR MIN TEMP:  31; 6HR MAX TEMP:  39;

$$

WAZ028-034-035-250100-
COLUMBIA BASIN

CITY           SKY/WX    TMP DP  RH WIND       PRES   REMARKS
EPHRATA        MOSUNNY   35  18  49 NW8       30.17S
6HR MIN TEMP:  29; 6HR MAX TEMP:  37;

MOSES LAKE     SUNNY     37  24  59 NW5       30.19S
6HR MIN TEMP:  30; 6HR MAX TEMP:  38;

PASCO          MOSUNNY   45  17  32 VRB5      30.20S
6HR MIN TEMP:  39; 6HR MAX TEMP:  46;

HERMISTON, OR  MOSUNNY   45  24  43 NE6       30.17S
6HR MIN TEMP:  39; 6HR MAX TEMP:  46;

$$

WAZ036>038-250100-
NORTHEAST WASHINGTON

CITY           SKY/WX    TMP DP  RH WIND       PRES   REMARKS
SPOKANE GEIGER FLURRIES  30  26  85 NW5       30.14S
6HR MIN TEMP:  24; 6HR MAX TEMP:  33; 6HR PCP:  0.01;

SPOKANE FELTS  PTSUNNY   36  26  67 N3        30.16S
6HR MIN TEMP:  25; 6HR MAX TEMP:  37; 6HR PCP:  0.03;

FAIRCHILD AFB  PTSUNNY   28  28 100 N5        30.14R
6HR MIN TEMP:  23; 6HR MAX TEMP:  33; 6HR PCP:  0.03;

COEURDALENE,ID MOSUNNY   32  24  72 CALM      30.15S
6HR MIN TEMP:  26; 6HR MAX TEMP:  35; 6HR PCP: TRACE;

DEER PARK      SUNNY     28  24  85 CALM      30.16F
6HR MIN TEMP:  20; 6HR MAX TEMP:  31; 6HR PCP:  0.02;

$$

WAZ029>033-250100-
SOUTHEAST WASHINGTON

CITY           SKY/WX    TMP DP  RH WIND       PRES   REMARKS
PULLMAN        CLOUDY    34  18  52 SE5       30.14S
6HR MIN TEMP:  29; 6HR MAX TEMP:  36;

LEWISTON, ID   CLOUDY    42  18  37 E8        30.16S
6HR MIN TEMP:  35; 6HR MAX TEMP:  42;

WALLA WALLA    MOSUNNY   41  24  51 N5        30.17R
6HR MIN TEMP:  39; 6HR MAX TEMP:  43;

PENDLETON, OR  MOSUNNY   41  18  39 CALM      30.14S
6HR MIN TEMP:  36; 6HR MAX TEMP:  43;

$$




USA.gov is the U.S. government's official web portal to all federal, state and local government web resources and services.